Location: B?jaj?g
(11.7167°N, 92.6667°E)
Time: 12:39:47
(UTC+00:00)

Cosmos 1908 Rocket - Pass Details

Date: 18 September 2020
Orbit: 607 x 631 km, 82.5° (Epoch: 25 October)

Event Time Altitude Azimuth Distance (km) Brightness Sun altitude
Rises 12:06:03 0° 188° (S) 2,852 7.0 -5.2°
Reaches altitude 10° 12:08:16 10° 190° (S) 1,949 6.2 -5.8°
Maximum altitude 12:12:34 71° 274° (W) 640 3.9 -6.8°
Drops below altitude 10° 12:16:52 10° 359° (N) 1,956 6.2 -7.9°
Sets 12:19:06 0° 1° (N) 2,862 7.0 -8.4°
